Regional Weather Roundup
Issued by NWS Cleveland, OH

Home | Current Version | Previous Version | Graphics & Text | Print | Product List | Glossary On
Versions: 1 2 3 4 5 6 7 8 9 10 11 12 13 14 15 16 17 18 19 20 21 22 23 24 25 26 27 28 29 30 31 32 33 34 35 36 37 38 39 40 41 42 43 44 45 46 47 48 49 50
000
ASUS41 KCLE 252112
RWRCLE
OHIO REGIONAL WEATHER ROUNDUP
NATIONAL WEATHER SERVICE WILMINGTON, OH
500 PM EDT TUE APR 25 2017

NOTE: "FAIR" INDICATES FEW OR NO CLOUDS BELOW 12,000 FEET WITH NO
SIGNIFICANT WEATHER AND/OR OBSTRUCTIONS TO VISIBILITY.

OHZ001>008-015>018-024>027-034-035-043-044-252200-
   NORTHWEST OHIO

CITY           SKY/WX    TMP DP  RH WIND       PRES   REMARKS
DEFIANCE       PTSUNNY   74  52  46 SE10      29.70F
FINDLAY        FAIR      78  52  40 S10       29.69F
TOLEDO EXPRESS FAIR      70  55  59 E13       29.72F
TOLEDO EXEC    FAIR      66  55  67 NE13      29.74F
LIMA           FAIR      75  53  46 SE13      29.70F
$$

OHZ009>014-019>023-028>033-038-089-252200-
   NORTHEAST OHIO

CITY           SKY/WX    TMP DP  RH WIND       PRES   REMARKS
CLE-HOPKINS    PTSUNNY   73  51  46 SE14G24   29.78F
CLE-LAKEFRONT  PTSUNNY   68  52  56 MISG      29.75F
CUY CO. ARPT   PTSUNNY   73  55  53 S17       29.78F
LORAIN-ELYRIA  FAIR      73  52  47 SE13      29.75F
ASHTABULA      PTSUNNY   70  53  54 SE16G23   29.82F
AKRON-CANTON   PTSUNNY   68  52  56 SE16G24   29.80F
WOOSTER        FAIR      70  54  56 SE15      29.78F
MANSFIELD      FAIR      71  54  54 E13       29.74F
YOUNGSTOWN     PTSUNNY   67  53  61 SE14      29.81F
$$

OHZ042-051>053-060>062-070>072-077>081-252200-
  SOUTHWEST OHIO

CITY           SKY/WX    TMP DP  RH WIND       PRES   REMARKS
CINC-COVINGTON FAIR      73  57  57 SE6       29.70F
CINC-LUNKEN    FAIR      76  62  62 SW5       29.70F
HAMILTON       FAIR      77  58  51 VRB3      29.70F
DAYTON         PTSUNNY   74  56  53 S8        29.71F
WRIGHT-PAT AFB PTSUNNY   75  54  48 SW3       29.70F
DAYTON GENERAL PTSUNNY   75  56  51 SW6       29.70F
WILMINGTON     FAIR      75  58  55 CALM      29.71F
$$

OHZ036-037-039>041-045>050-054>059-063>069-073>076-082>088-252200-
  CENTRAL AND SOUTHEAST OHIO

CITY           SKY/WX    TMP DP  RH WIND       PRES   REMARKS
COLUMBUS       CLOUDY    74  54  49 E8        29.71F
OSU AIRPORT    PTSUNNY   73  55  53 SE5       29.72F
BOLTON FIELD   PTSUNNY   75  55  50 SE8       29.72F
RICKENBACK AFB CLOUDY    74  55  52 SE6       29.71F
NEWARK         CLOUDY    74  53  48 SE12      29.73F
MARION         PTSUNNY   75  52  44 S10       29.73F
LANCASTER      CLOUDY    73  56  54 E7        29.73F
ZANESVILLE     CLOUDY    71  54  54 E7        29.76F
NEW PHILLY     PTSUNNY   68  54  60 E13       29.78F
$$




USA.gov is the U.S. government's official web portal to all federal, state and local government web resources and services.